Weather Roundup
Issued by NWS Springfield, MO

Home | Current Version | Previous Version | Text Only | Print | Product List | Glossary On
Versions: 1 2 3 4 5 6 7 8 9 10 11 12 13 14 15 16 17 18 19 20 21 22 23 24 25 26 27 28 29 30 31 32 33 34 35 36 37 38 39 40 41 42 43 44 45 46 47 48 49 50
000
NZUS99 KSGF 290557
HRRSGF

HOURLY WEATHER
NATIONAL WEATHER SERVICE SPRINGFIELD MO
100 AM CDT THU SEP 29 2016

......SGF CWA......

CITY           SKY/WX    TMP DP  RH WIND       PRES   REMARKS
SPRINGFIELD    CLEAR     52  46  80 NW7       30.22R
6HR MIN TEMP:  51; 6HR MAX TEMP:  64;

JOPLIN         CLEAR     51  48  89 N5        30.25R
6HR MIN TEMP:  51; 6HR MAX TEMP:  65;

WEST PLAINS    CLEAR     52  46  80 N6        30.18F
6HR MIN TEMP:  52; 6HR MAX TEMP:  63;

ROLLA          CLEAR     52  48  86 NW7       30.17S
6HR MIN TEMP:  51; 6HR MAX TEMP:  60;


......SURROUNDING SGF CWA......

CITY           SKY/WX    TMP DP  RH WIND       PRES   REMARKS
CHANUTE        CLEAR     52  48  86 N5        30.27R
PARSONS        CLEAR     53  48  83 NE3       30.28R
COFFEYVILLE    CLEAR     56  49  77 NE9       30.26R
EMPORIA        CLEAR     52  48  86 N5        30.30R
HARRISON AR    CLEAR     53  46  77 N5        30.21R

......KANSAS AND MISSOURI......

CITY           SKY/WX    TMP DP  RH WIND       PRES   REMARKS
KANSAS CTY INT PTCLDY    51  46  83 N8        30.28S
SEDALIA        CLEAR     53  48  83 N7        30.24S
ST JOSEPH      CLEAR     50  47  89 N7        30.30S
ST LOUIS       CLEAR     56  49  77 NW10      30.13S
WICHITA        CLEAR     56  47  71 NE9       30.29R
TOPEKA         MOCLDY    52  48  86 NW3       30.30S
OLATHE         CLEAR     53  46  77 N5        30.27S

......TENNESSEE......

CITY           SKY/WX    TMP DP  RH WIND       PRES   REMARKS
MEMPHIS        NOT AVBL
NASHVILLE      CLEAR     56  46  69 NW9       30.05S

......ARKANSAS.......

CITY           SKY/WX    TMP DP  RH WIND       PRES   REMARKS
FAYETTEVILLE   CLEAR     55  49  80 VRB3      30.21R
FT SMITH       CLEAR     61  48  62 N9        30.16R
LITTLE ROCK    CLEAR     65  47  52 N9        30.13R

......OKLAHOMA.......

CITY           SKY/WX    TMP DP  RH WIND       PRES   REMARKS
TULSA          CLEAR     54  50  86 NW6       30.23R
PONCA CITY     CLEAR     52  47  83 CALM      30.27R
MCALESTER      PTCLDY    66  48  52 NE7       30.19R
OKLAHOMA CITY  PTCLDY    62  47  57 NE14      30.25R

......IOWA............

CITY           SKY/WX    TMP DP  RH WIND       PRES   REMARKS
DES MOINES     NOT AVBL
QUAD CITIES    CLEAR     56  49  77 N6        30.19S

......ILLINOIS........

CITY           SKY/WX    TMP DP  RH WIND       PRES   REMARKS
QUINCY         CLEAR     52  49  89 NW10      30.18S
CHICAGO        CLOUDY    60  55  83 N13       30.07S



USA.gov is the U.S. government's official web portal to all federal, state and local government web resources and services.